TimeCDT,TemperatureF,Dew PointF,Humidity,Sea Level PressureIn,VisibilityMPH,Wind Direction,Wind SpeedMPH,Gust SpeedMPH,PrecipitationIn,Events,Conditions,WindDirDegrees,DateUTC
12:15 AM,74.3,71.2,90,29.87,7.0,Calm,Calm,-,N/A,,Clear,0,2013-08-07 05:15:00
12:35 AM,74.3,70.9,89,29.87,7.0,South,4.6,-,N/A,,Clear,190,2013-08-07 05:35:00
12:55 AM,73.4,70.7,91,29.86,7.0,South,3.5,-,N/A,,Clear,190,2013-08-07 05:55:00
1:15 AM,73.4,70.3,90,29.84,7.0,South,6.9,-,N/A,,Clear,180,2013-08-07 06:15:00
1:35 AM,73.6,70.2,89,29.83,10.0,South,10.4,-,N/A,,Clear,180,2013-08-07 06:35:00
1:55 AM,73.4,70.0,89,29.84,10.0,South,4.6,-,N/A,,Clear,190,2013-08-07 06:55:00
2:15 AM,72.7,69.8,91,29.84,10.0,Calm,Calm,-,N/A,,Clear,0,2013-08-07 07:15:00
2:35 AM,72.1,69.8,92,29.83,10.0,Calm,Calm,-,N/A,,Clear,0,2013-08-07 07:35:00
2:55 AM,71.8,69.8,93,29.83,10.0,South,5.8,-,N/A,,Clear,180,2013-08-07 07:55:00
3:15 AM,71.2,69.3,93,29.83,10.0,Calm,Calm,-,N/A,,Clear,0,2013-08-07 08:15:00
3:35 AM,70.7,69.1,95,29.81,7.0,South,5.8,-,N/A,,Clear,170,2013-08-07 08:35:00
3:55 AM,70.7,68.9,94,29.82,7.0,Calm,Calm,-,N/A,,Clear,0,2013-08-07 08:55:00
4:15 AM,70.7,69.1,95,29.83,7.0,Calm,Calm,-,N/A,,Clear,0,2013-08-07 09:15:00
4:35 AM,70.3,68.9,95,29.83,7.0,Calm,Calm,-,N/A,,Clear,0,2013-08-07 09:35:00
4:55 AM,70.2,68.9,96,29.82,5.0,South,5.8,-,N/A,,Clear,190,2013-08-07 09:55:00
5:15 AM,70.0,68.9,96,29.83,5.0,Calm,Calm,-,N/A,,Clear,0,2013-08-07 10:15:00
5:35 AM,68.9,67.8,96,29.83,4.0,Calm,Calm,-,N/A,,Mostly Cloudy,0,2013-08-07 10:35:00
5:55 AM,68.9,67.6,96,29.83,5.0,Calm,Calm,-,N/A,,Mostly Cloudy,0,2013-08-07 10:55:00
6:15 AM,69.3,68.2,96,29.84,4.0,South,5.8,-,N/A,,Mostly Cloudy,180,2013-08-07 11:15:00
6:35 AM,69.8,68.5,96,29.83,4.0,Calm,Calm,-,N/A,,Overcast,0,2013-08-07 11:35:00
6:55 AM,70.3,69.3,96,29.84,2.0,Calm,Calm,-,N/A,,Overcast,0,2013-08-07 11:55:00
7:15 AM,70.9,69.8,96,29.84,1.5,South,5.8,-,N/A,,Overcast,190,2013-08-07 12:15:00
7:35 AM,71.8,70.7,96,29.85,1.8,Calm,Calm,-,N/A,,Overcast,0,2013-08-07 12:35:00
7:55 AM,72.9,71.6,96,29.85,4.0,Calm,Calm,-,N/A,,Scattered Clouds,0,2013-08-07 12:55:00
8:15 AM,73.2,71.4,94,29.85,4.0,South,6.9,-,N/A,,Mostly Cloudy,190,2013-08-07 13:15:00
8:35 AM,74.3,72.1,93,29.85,5.0,South,3.5,-,N/A,,Overcast,190,2013-08-07 13:35:00
8:55 AM,74.7,72.1,92,29.84,4.0,South,3.5,-,N/A,,Overcast,180,2013-08-07 13:55:00
9:15 AM,76.1,72.9,90,29.85,5.0,WSW,3.5,-,N/A,,Overcast,240,2013-08-07 14:15:00
9:35 AM,76.5,72.9,89,29.85,5.0,WSW,3.5,-,N/A,,Overcast,240,2013-08-07 14:35:00
9:55 AM,77.0,73.2,88,29.85,5.0,Calm,Calm,-,N/A,,Overcast,0,2013-08-07 14:55:00
10:15 AM,77.2,73.4,88,29.86,5.0,SSW,4.6,-,N/A,,Overcast,210,2013-08-07 15:15:00
10:35 AM,77.7,73.6,87,29.86,5.0,SSW,4.6,-,N/A,,Overcast,210,2013-08-07 15:35:00
10:55 AM,78.3,73.8,86,29.86,7.0,South,5.8,-,N/A,,Overcast,190,2013-08-07 15:55:00
11:15 AM,78.6,73.6,84,29.86,7.0,Calm,Calm,-,N/A,,Overcast,0,2013-08-07 16:15:00
11:35 AM,79.9,73.8,81,29.85,7.0,WSW,3.5,-,N/A,,Overcast,250,2013-08-07 16:35:00
11:55 AM,80.6,74.1,81,29.86,10.0,SSW,3.5,-,N/A,,Overcast,200,2013-08-07 16:55:00
12:15 PM,80.6,73.8,80,29.85,10.0,Calm,Calm,-,N/A,,Overcast,0,2013-08-07 17:15:00
12:35 PM,81.5,73.6,77,29.84,10.0,Calm,Calm,-,N/A,,Overcast,0,2013-08-07 17:35:00
12:55 PM,82.4,73.9,75,29.85,10.0,Calm,Calm,-,N/A,,Overcast,0,2013-08-07 17:55:00
1:15 PM,82.9,74.5,75,29.84,10.0,Calm,Calm,-,N/A,,Overcast,0,2013-08-07 18:15:00
1:35 PM,83.7,74.1,73,29.84,10.0,Calm,Calm,-,N/A,,Overcast,0,2013-08-07 18:35:00
1:55 PM,85.8,74.5,69,29.84,10.0,Calm,Calm,-,N/A,,Scattered Clouds,0,2013-08-07 18:55:00
2:15 PM,85.1,74.5,70,29.83,10.0,Calm,Calm,-,N/A,,Mostly Cloudy,0,2013-08-07 19:15:00
2:35 PM,85.8,74.8,70,29.83,10.0,South,4.6,-,N/A,,Overcast,190,2013-08-07 19:35:00
2:55 PM,85.3,74.5,70,29.83,10.0,SSW,4.6,-,N/A,,Mostly Cloudy,210,2013-08-07 19:55:00
3:15 PM,85.3,75.2,72,29.82,10.0,South,8.1,-,N/A,,Overcast,170,2013-08-07 20:15:00
3:35 PM,83.7,74.8,75,29.81,10.0,SSW,4.6,-,N/A,,Overcast,200,2013-08-07 20:35:00
3:55 PM,83.5,74.8,75,29.82,10.0,Calm,Calm,-,N/A,,Mostly Cloudy,0,2013-08-07 20:55:00
4:15 PM,82.8,74.5,76,29.82,10.0,Calm,Calm,-,N/A,,Scattered Clouds,0,2013-08-07 21:15:00
4:35 PM,82.4,74.7,77,29.82,10.0,Calm,Calm,-,N/A,,Overcast,0,2013-08-07 21:35:00
5:15 PM,81.5,74.3,79,29.84,10.0,Calm,Calm,-,N/A,,Overcast,0,2013-08-07 22:15:00
5:35 PM,82.8,74.8,77,29.83,10.0,Calm,Calm,-,N/A,,Overcast,0,2013-08-07 22:35:00
5:55 PM,83.5,75.2,76,29.83,10.0,Calm,Calm,-,N/A,,Scattered Clouds,0,2013-08-07 22:55:00
6:15 PM,84.0,75.0,74,29.84,10.0,SSE,3.5,-,N/A,Thunderstorm,Scattered Clouds,160,2013-08-07 23:15:00
6:35 PM,82.6,73.9,75,29.85,10.0,NE,17.3,27.6,N/A,Thunderstorm,Thunderstorm,50,2013-08-07 23:35:00
6:55 PM,73.2,70.0,90,29.87,0.8,SE,9.2,24.2,0.66,Rain-Thunderstorm,Light Thunderstorms and Rain,140,2013-08-07 23:55:00
7:15 PM,75.6,69.3,81,29.86,10.0,East,5.8,-,0.19,Rain-Thunderstorm,Light Thunderstorms and Rain,90,2013-08-08 00:15:00
7:35 PM,72.9,69.6,90,29.87,10.0,Calm,Calm,-,0.19,Thunderstorm,Thunderstorm,0,2013-08-08 00:35:00
7:55 PM,72.5,69.6,91,29.88,10.0,SSW,3.5,-,0.19,,Scattered Clouds,200,2013-08-08 00:55:00
8:15 PM,71.8,68.9,91,29.88,10.0,Calm,Calm,-,N/A,,Clear,0,2013-08-08 01:15:00
8:35 PM,71.4,68.9,92,29.87,10.0,Calm,Calm,-,N/A,,Clear,0,2013-08-08 01:35:00
8:55 PM,71.4,69.6,94,29.87,10.0,Calm,Calm,-,N/A,,Clear,0,2013-08-08 01:55:00
9:15 PM,71.2,69.8,95,29.89,7.0,Calm,Calm,-,N/A,,Clear,0,2013-08-08 02:15:00
9:35 PM,70.0,68.5,95,29.89,10.0,Calm,Calm,-,N/A,,Clear,0,2013-08-08 02:35:00
9:55 PM,70.7,69.4,96,29.89,7.0,Calm,Calm,-,N/A,,Clear,0,2013-08-08 02:55:00
10:15 PM,71.2,70.0,96,29.91,5.0,Calm,Calm,-,N/A,,Clear,0,2013-08-08 03:15:00
10:35 PM,70.3,69.1,96,29.91,5.0,Calm,Calm,-,N/A,,Clear,0,2013-08-08 03:35:00
10:55 PM,69.8,68.4,95,29.91,2.5,Calm,Calm,-,N/A,,Clear,0,2013-08-08 03:55:00
11:15 PM,70.7,69.4,96,29.91,4.0,Calm,Calm,-,N/A,,Clear,0,2013-08-08 04:15:00
11:35 PM,71.1,70.0,96,29.91,4.0,Calm,Calm,-,N/A,,Clear,0,2013-08-08 04:35:00
11:55 PM,70.9,69.8,96,29.91,4.0,Calm,Calm,-,N/A,,Mostly Cloudy,0,2013-08-08 04:55:00